Flag for USA

Past Weather in Columbus Marsh Mining District, Nevada, USA — Yesterday and Last 2 Weeks

Now
54 °F

Passing clouds.


Feels Like: 54 °F
Forecast: 82 / 43 °F
Wind: No wind

Location: Reno Tahoe International Airport
Current Time: Sep 23, 2020 at 9:19:53 am
Latest Report: Sep 23, 2020 at 7:55 am
Visibility: 10 mi
Pressure30.11 "Hg
Humidity: 49%
Dew Point: 35 °F
Location of Columbus Marsh Mining DistrictLocation

Past Weather in Columbus Marsh Mining District — Graph

°F

Columbus Marsh Mining District Temperature Yesterday

Maximum temperature yesterday: 85 °F (at 2:55 pm)
Minimum temperature yesterday: 57 °F (at 6:55 am)
Average temperature yesterday: 70 °F

High & Low Weather Summary for the Past Weeks

 TemperatureHumidityPressure
High92 °F (Sep 13, 2:58 pm)66% (Sep 19, 6:55 am)30.28 "Hg (Sep 19, 6:55 am)
Low45 °F (Sep 10, 5:55 am)6% (Sep 9, 2:55 pm)29.83 "Hg (Sep 18, 3:55 pm)
Average67 °F27%30.00 "Hg
* Reported Sep 8 7:55 am — Sep 23 7:55 am, Columbus Marsh Mining District. Weather by CustomWeather, © 2020

Note: Actual official high and low records may vary slightly from our data, if they occured in-between our weather recording intervals... More about our weather records

Columbus Marsh Mining District Weather History for the Previous 24 Hours

Scroll right to see more
 ConditionsComfort  
Time TempWeatherWind HumidityBarometerVisibility
7:55 am
Wed, Sep 23
54 °FPassing clouds.No wind49%30.11 "Hg10 mi
6:55 am50 °FScattered clouds.No wind57%30.11 "Hg10 mi
5:55 am51 °FPassing clouds.No wind52%30.10 "Hg10 mi
4:55 am53 °FClear.3 mph51%30.08 "Hg10 mi
3:55 am54 °FClear.No wind47%30.06 "Hg10 mi
2:55 am57 °FClear.No wind42%30.05 "Hg10 mi
1:55 am57 °FClear.No wind42%30.05 "Hg10 mi
12:55 am59 °FClear.8 mph41%30.05 "Hg10 mi
11:55 pm
Tue, Sep 22
63 °FPassing clouds.No wind34%30.03 "Hg10 mi
10:55 pm67 °FPassing clouds.No wind29%30.03 "Hg10 mi
9:55 pm69 °FPassing clouds.No wind26%30.02 "Hg10 mi
8:55 pm71 °FPassing clouds.3 mph24%30.03 "Hg10 mi
7:55 pm73 °FPassing clouds.10 mph23%30.02 "Hg10 mi
6:55 pm74 °FPartly cloudy.13 mph22%30.00 "Hg10 mi
5:55 pm78 °FScattered clouds.17 mph19%29.97 "Hg10 mi
4:55 pm81 °FPassing clouds.16 mph16%29.94 "Hg10 mi
3:55 pm83 °FPassing clouds.21 mph16%29.93 "Hg10 mi
2:55 pm85 °FPassing clouds.16 mph16%29.92 "Hg10 mi
1:55 pm84 °FPassing clouds.16 mph15%29.93 "Hg10 mi
1:43 pm83 °FPassing clouds.16 mph17%30.10 "Hg10 mi
12:55 pm81 °FPassing clouds.8 mph14%29.95 "Hg10 mi
11:55 am81 °FPassing clouds.6 mph14%29.96 "Hg10 mi
10:55 am76 °FSunny.6 mph16%29.98 "Hg10 mi
9:55 am74 °FSunny.5 mph17%29.98 "Hg10 mi
Weather by CustomWeather, © 2020

See weather overview